Waarnemingen

Advertentie
Mijn weer
Edinburgh/Gogarbank, Groot Brittannië (3166): temperatuur & dauwpunt: 01.08.2020 05:00:00 - 07.08.2020 05:00:00 (BST)Edinburgh/Gogarbank, Groot Brittannië (3166): temperatuur -20cm & temperatuur -100cm: 01.08.2020 05:00:00 - 07.08.2020 05:00:00 (BST)Edinburgh/Gogarbank, Groot Brittannië (3166): windsnelheid & windstoten: 01.08.2020 05:00:00 - 07.08.2020 05:00:00 (BST)Edinburgh/Gogarbank, Groot Brittannië (3166): windrichting: 01.08.2020 05:00:00 - 07.08.2020 05:00:00 (BST)Edinburgh/Gogarbank, Groot Brittannië (3166): luchtdruk: 01.08.2020 05:00:00 - 07.08.2020 05:00:00 (BST)Edinburgh/Gogarbank, Groot Brittannië (3166): zicht: 01.08.2020 05:00:00 - 07.08.2020 05:00:00 (BST)Edinburgh/Gogarbank, Groot Brittannië (3166): Zonneschijnduur: 01.08.2020 05:00:00 - 07.08.2020 05:00:00 (BST)Edinburgh/Gogarbank, Groot Brittannië (3166): neerslag: 01.08.2020 05:00:00 - 07.08.2020 05:00:00 (BST)
Datum & Tijd tt [°C] td [°C] tt -20cm [°C] tt -100cm [°C] ff [km/u] ff [kn] fx [km/u] fx [kn] dd ppp [hPa] vv [km] sd [min] rr [mm]
07.08.2020 05:00:00 15,9 13,6 - - 9 5 - - ZW 1015,0 50 0 0,0
07.08.2020 04:00:00 15,8 13,1 - - 15 8 - - ZZW 1015,3 50 0 0,0
07.08.2020 03:00:00 15,7 12,9 - - 8 4 - - WZW 1015,1 50 0 0,0
07.08.2020 02:00:00 15,8 12,8 - - 11 6 - - ZZW 1015,1 50 0 0,0
07.08.2020 01:00:00 15,6 12,6 - - 11 6 - - ZW 1015,2 50 - 0,0
07.08.2020 00:00:00 15,9 13,0 - - 11 6 - - ZZW 1014,8 50 0 0,0
06.08.2020 23:00:00 16,7 13,6 - - 16 9 - - ZW 1015,0 50 0 0,0
06.08.2020 22:00:00 17,9 14,5 - - 13 7 - - WZW 1014,9 50 0 0,0
06.08.2020 21:00:00 18,0 14,2 - - 8 4 - - ZZW 1014,4 50 12 0,0
06.08.2020 20:00:00 19,4 14,4 - - 15 8 - - ZZW 1014,1 50 6 0,0
06.08.2020 19:00:00 21,0 14,6 - - 13 7 - - ZZW 1013,6 45 0 0,0
06.08.2020 18:00:00 22,0 14,3 - - 8 4 - - ZZW 1013,8 45 12 0,0
06.08.2020 17:00:00 21,4 14,3 - - 5 3 - - Z 1014,2 45 0 0,0
06.08.2020 16:00:00 21,7 14,2 - - 15 8 - - ZZW 1014,4 40 18 0,0
06.08.2020 15:00:00 21,0 14,6 - - 8 4 - - NNO 1014,4 40 0 0,0
06.08.2020 14:00:00 20,6 14,3 - - 9 5 - - NO 1014,5 45 24 0,0
06.08.2020 13:00:00 20,6 13,7 - - 9 5 - - WZW 1014,5 45 12 0,0
06.08.2020 12:00:00 20,4 14,5 - - 9 5 - - WZW 1014,6 25 18 0,0
06.08.2020 11:00:00 18,4 13,1 - - 5 3 - - ZZW 1014,6 30 42 0,0
06.08.2020 10:00:00 17,3 12,4 15,7 14,2 8 4 - - ZW 1014,6 35 60 0,0
06.08.2020 09:00:00 16,5 12,0 - - 8 4 - - WZW 1014,6 45 60 0,0
06.08.2020 08:00:00 15,4 12,7 - - 8 4 - - ZW 1014,2 30 54 0,0
06.08.2020 07:00:00 12,8 11,9 - - 5 3 - - NW 1013,5 45 48 0,0
06.08.2020 06:00:00 11,7 11,1 - - 9 5 - - Z 1012,7 40 0 0,0
06.08.2020 05:00:00 12,1 11,4 - - 11 6 - - ZW 1012,4 45 0 0,0
06.08.2020 04:00:00 12,5 11,8 - - 9 5 - - WZW 1012,0 50 0 0,0
06.08.2020 03:00:00 12,4 11,7 - - 8 4 - - ZW 1011,3 40 0 0,0
06.08.2020 02:00:00 13,8 12,8 - - 8 4 - - ZW 1010,5 45 0 0,0
06.08.2020 01:00:00 15,4 14,1 - - 13 7 - - WZW 1009,8 50 - 0,0
06.08.2020 00:00:00 15,6 14,5 - - 15 8 - - WZW 1008,8 45 0 0,0
05.08.2020 23:00:00 15,8 14,7 - - 13 7 - - WZW 1008,0 50 0 0,0
05.08.2020 22:00:00 16,2 15,2 - - 13 7 - - W 1007,1 50 0 0,0
05.08.2020 21:00:00 16,9 15,8 - - 13 7 - - W 1006,0 3,2 0 0,0
05.08.2020 20:00:00 18,5 15,4 - - 13 7 - - WZW 1005,0 45 12 0,0
05.08.2020 19:00:00 18,3 16,1 - - 11 6 - - WZW 1004,2 35 6 0,0
05.08.2020 18:00:00 18,7 16,0 - - 13 7 - - WZW 1003,7 35 0 0,0
05.08.2020 17:00:00 17,7 16,2 - - 15 8 - - ZW 1003,8 40 0 1,4
05.08.2020 16:00:00 16,8 16,1 - - 2 1 - - ZW 1003,8 3,8 0 2,0
05.08.2020 15:00:00 16,8 16,2 - - 4 2 - - NW 1003,4 3,0 0 2,0
05.08.2020 14:00:00 16,5 15,1 - - 8 4 - - W 1003,7 3,8 0 0,0
05.08.2020 13:00:00 17,6 13,9 - - 11 6 - - WZW 1002,9 30 0 0,0
05.08.2020 12:00:00 17,5 14,4 - - 9 5 - - WNW 1002,3 45 0 0,0
05.08.2020 11:00:00 17,2 13,7 - - 13 7 - - WZW 1002,0 45 0 0,0
05.08.2020 10:00:00 16,3 14,0 15,2 14,2 11 6 - - WZW 1002,0 50 0 0,0
05.08.2020 09:00:00 15,6 13,5 - - 9 5 - - WZW 1001,8 45 0 0,0
05.08.2020 08:00:00 14,8 12,9 - - 9 5 - - W 1001,4 40 0 0,0
05.08.2020 07:00:00 14,7 12,7 - - 13 7 - - WZW 1001,3 50 0 0,0
05.08.2020 06:00:00 14,4 12,8 - - 11 6 - - WZW 1000,7 40 0 0,0
05.08.2020 05:00:00 14,3 12,7 - - 15 8 - - WZW 1000,2 40 0 0,0
05.08.2020 04:00:00 14,5 13,1 - - 16 9 - - WZW 1000,0 45 0 0,0
05.08.2020 03:00:00 14,4 13,7 - - 15 8 - - W 999,7 22 0 0,4
05.08.2020 02:00:00 14,7 14,2 - - 15 8 - - W 999,1 6 0 0,2
05.08.2020 01:00:00 14,8 14,1 - - 24 13 - - W 998,7 2,6 - 2,0
05.08.2020 00:00:00 17,6 15,1 - - 29 16 48 26 ZW 997,4 50 0 0,0
04.08.2020 23:00:00 17,2 15,0 - - 24 13 46 25 ZW 997,6 50 0 0,0
04.08.2020 22:00:00 16,7 15,1 - - 28 15 54 29 ZW 998,0 45 0 0,0
04.08.2020 21:00:00 16,4 15,2 - - 28 15 54 29 ZZW 998,3 4,6 0 0,2
04.08.2020 20:00:00 16,8 15,3 - - 31 17 55 30 ZW 998,2 5 0 1,6
04.08.2020 19:00:00 16,7 15,3 - - 31 17 57 31 ZZW 998,7 4,7 0 2,8
04.08.2020 18:00:00 16,8 15,4 - - 31 17 54 29 ZW 998,8 4,6 0 1,0
04.08.2020 17:00:00 16,7 15,2 - - 29 16 55 30 ZZW 999,4 17 0 2,6
04.08.2020 16:00:00 16,5 14,8 - - 34 18 55 30 ZZW 1000,0 12 0 1,6
04.08.2020 15:00:00 15,9 14,4 - - 28 15 54 29 ZZW 1000,8 4,5 0 4,4
04.08.2020 14:00:00 15,4 13,6 - - 18 10 - - ZZW 1001,7 9 0 1,2
04.08.2020 13:00:00 15,1 12,6 - - 26 14 46 25 ZZW 1003,2 12 0 0,2
04.08.2020 12:00:00 14,5 12,3 - - 16 9 46 25 Z 1004,1 26 0 0,2
04.08.2020 11:00:00 13,8 11,3 - - 16 9 - - ZZW 1005,6 35 0 0,8
04.08.2020 10:00:00 12,8 11,6 15,2 14,2 4 2 - - O 1007,2 14 0 1,2
04.08.2020 09:00:00 12,4 11,4 - - 4 2 - - O 1008,5 14 0 1,2
04.08.2020 08:00:00 12,3 10,5 - - 5 3 - - Z 1009,6 11 0 0,6
04.08.2020 07:00:00 12,3 9,5 - - 11 6 - - Z 1010,2 24 0 0,0
04.08.2020 06:00:00 12,6 8,9 - - 13 7 - - Z 1011,1 50 0 0,0
04.08.2020 05:00:00 11,8 8,5 - - 11 6 - - ZZW 1012,0 45 0 0,0
04.08.2020 04:00:00 11,9 8,2 - - 9 5 - - ZW 1012,6 50 0 0,0
04.08.2020 03:00:00 12,0 7,8 - - 11 6 - - ZW 1013,5 50 0 0,0
04.08.2020 02:00:00 12,1 8,7 - - 9 5 - - ZW 1014,2 40 0 0,0
04.08.2020 01:00:00 11,9 8,7 - - 11 6 - - ZZW 1014,7 45 - 0,0
04.08.2020 00:00:00 11,4 8,3 - - 9 5 - - ZZW 1015,0 50 0 0,0
03.08.2020 23:00:00 11,8 8,2 - - 5 3 - - ZZW 1015,2 50 0 0,0
03.08.2020 22:00:00 13,4 8,4 - - 11 6 - - W 1015,1 50 0 0,0
03.08.2020 21:00:00 14,0 7,8 - - 13 7 - - W 1015,0 50 12 0,0
03.08.2020 20:00:00 14,0 9,3 - - 11 6 - - WZW 1014,9 45 0 0,0
03.08.2020 19:00:00 14,0 8,0 - - 18 10 - - W 1014,8 50 0 0,0
03.08.2020 18:00:00 15,4 6,6 - - 21 11 - - W 1014,7 45 6 0,0
03.08.2020 17:00:00 15,5 7,6 - - 24 13 - - W 1014,7 35 0 0,0
03.08.2020 16:00:00 15,1 8,4 - - 21 11 - - W 1014,8 45 0 0,0
03.08.2020 15:00:00 15,8 8,5 - - 16 9 - - WZW 1014,6 50 42 0,0
03.08.2020 14:00:00 14,9 8,8 - - 16 9 - - WZW 1014,9 35 0 0,0
03.08.2020 13:00:00 13,7 9,8 - - 13 7 - - W 1015,3 20 6 0,2
03.08.2020 12:00:00 14,8 8,1 - - 13 7 - - W 1015,2 35 6 0,0
03.08.2020 11:00:00 15,3 7,4 - - 18 10 - - W 1014,8 29 36 0,0
03.08.2020 10:00:00 14,3 7,7 15,5 14,2 21 11 - - W 1014,9 28 42 0,0
03.08.2020 09:00:00 13,2 8,2 - - 15 8 - - WZW 1014,7 35 60 0,0
03.08.2020 08:00:00 11,8 8,8 - - 13 7 - - W 1014,8 30 60 0,0
03.08.2020 07:00:00 9,7 8,2 - - 13 7 - - WZW 1014,9 24 30 0,0
03.08.2020 06:00:00 8,0 6,9 - - 8 4 - - ZW 1014,8 35 0 0,0
03.08.2020 05:00:00 8,2 6,9 - - 13 7 - - ZW 1014,5 28 0 0,0
03.08.2020 04:00:00 8,8 7,1 - - 15 8 - - ZW 1014,5 30 0 0,0
03.08.2020 03:00:00 8,7 6,6 - - 13 7 - - ZW 1014,5 35 0 0,0
03.08.2020 02:00:00 9,2 7,2 - - 16 9 - - ZW 1014,5 30 0 0,0
03.08.2020 01:00:00 9,7 7,2 - - 13 7 - - ZW 1014,5 35 - 0,0
03.08.2020 00:00:00 10,2 7,2 - - 15 8 - - WZW 1014,4 35 0 0,0
02.08.2020 23:00:00 10,5 7,3 - - 13 7 - - ZW 1014,3 50 0 0,0
02.08.2020 22:00:00 11,4 7,2 - - 9 5 - - W 1014,2 50 0 0,0
02.08.2020 21:00:00 13,3 7,7 - - 11 6 - - W 1013,6 23 42 0,0
02.08.2020 20:00:00 15,4 8,2 - - 16 9 - - W 1013,2 40 60 0,0
02.08.2020 19:00:00 15,9 7,9 - - 21 11 - - W 1013,0 45 24 0,0
02.08.2020 18:00:00 16,8 6,6 - - 24 13 - - W 1012,7 40 54 0,0
02.08.2020 17:00:00 15,9 9,1 - - 24 13 - - WZW 1013,0 45 12 0,0
02.08.2020 16:00:00 16,1 8,5 - - 24 13 - - WNW 1013,0 35 6 0,0
02.08.2020 15:00:00 16,1 8,8 - - 16 9 - - W 1012,8 45 0 0,0
02.08.2020 14:00:00 16,6 8,9 - - 16 9 - - W 1012,8 30 6 0,0
02.08.2020 13:00:00 16,6 8,6 - - 16 9 - - W 1012,5 40 6 0,0
02.08.2020 12:00:00 16,4 9,6 - - 18 10 - - W 1012,2 35 24 0,0
02.08.2020 11:00:00 16,3 10,4 - - 21 11 - - W 1012,2 40 48 0,0
02.08.2020 10:00:00 14,3 10,7 15,7 14,0 18 10 - - W 1012,3 50 0 0,0
02.08.2020 09:00:00 13,3 11,0 - - 15 8 - - WZW 1012,3 50 6 0,0
02.08.2020 08:00:00 12,7 10,8 - - 13 7 - - WZW 1012,2 50 6 0,0
02.08.2020 07:00:00 11,7 10,6 - - 11 6 - - ZW 1012,1 40 0 0,0
02.08.2020 06:00:00 11,5 10,7 - - 11 6 - - WZW 1011,9 30 0 0,0
02.08.2020 05:00:00 11,8 11,0 - - 11 6 - - WZW 1011,9 30 0 0,0
02.08.2020 04:00:00 11,8 11,0 - - 11 6 - - WZW 1011,9 30 0 0,0
02.08.2020 03:00:00 12,1 11,4 - - 11 6 - - WZW 1011,9 40 0 0,0
02.08.2020 02:00:00 11,8 11,2 - - 9 5 - - ZW 1012,2 13 0 0,8
02.08.2020 01:00:00 12,1 10,8 - - 9 5 - - ZW 1012,6 12 - 0,4
02.08.2020 00:00:00 13,1 9,9 - - 9 5 - - WZW 1012,7 35 0 0,0
01.08.2020 23:00:00 13,5 9,9 - - 11 6 - - WZW 1012,7 40 0 0,0
01.08.2020 22:00:00 14,1 9,8 - - 13 7 - - ZW 1012,6 50 0 0,0
01.08.2020 21:00:00 14,8 10,6 - - 8 4 - - WZW 1012,5 40 0 0,0
01.08.2020 20:00:00 15,9 10,2 - - 9 5 - - W 1012,5 40 6 0,0
01.08.2020 19:00:00 16,6 10,3 - - 11 6 - - W 1012,6 35 0 0,0
01.08.2020 18:00:00 16,3 9,6 - - 18 10 - - W 1012,8 29 0 0,0
01.08.2020 17:00:00 17,2 9,2 - - 18 10 - - W 1012,7 40 6 0,0
01.08.2020 16:00:00 17,7 9,0 - - 21 11 - - W 1012,7 45 12 0,0
01.08.2020 15:00:00 17,4 10,2 - - 24 13 - - W 1012,6 30 0 0,0
01.08.2020 14:00:00 17,9 9,3 - - 18 10 - - W 1012,2 45 12 0,0
01.08.2020 13:00:00 17,4 9,5 - - 21 11 - - W 1011,9 25 0 0,0
01.08.2020 12:00:00 16,9 9,9 - - 22 12 - - W 1011,8 26 18 0,0
01.08.2020 11:00:00 15,8 9,6 - - 22 12 - - W 1011,4 35 6 0,0
01.08.2020 10:00:00 15,3 10,6 15,7 14,0 21 11 - - W 1011,1 30 30 0,0
01.08.2020 09:00:00 14,6 11,7 - - 16 9 - - WZW 1010,7 28 0 0,0
01.08.2020 08:00:00 14,4 12,6 - - 18 10 - - WZW 1010,2 40 6 0,0
01.08.2020 07:00:00 14,4 13,0 - - 15 8 - - WZW 1009,8 50 0 0,0
01.08.2020 06:00:00 15,3 14,3 - - 11 6 - - W 1009,3 27 0 0,0
01.08.2020 05:00:00 15,6 14,9 - - 9 5 - - W 1008,8 12 0 0,0

tt = temperatuur
td = dauwpunt
tt -20cm = temperatuur -20cm
tt -100cm = temperatuur -100cm
ff = windsnelheid
fx = windstoten
dd = windrichting
ppp = luchtdruk
vv = zicht
sd = Zonneschijnduur
rr = neerslag

Weerstations in de omgeving